| time (UTC) | temp C | wind direction | speed KPH | gust KPH | rain 1hr cm | rain 24hr cm | rain mn cm | humidity % | barometer mb |
| 20260504044527 | 11 | 27 | 0.0 | 3.2 | 0.00 | 0.00 | 0.00 | 62 | 999.1 |
| 20260504043020 | 12 | 330 | 0.0 | 4.8 | 0.00 | 0.00 | 0.00 | 57 | 998.6 |
| 20260504041514 | 16 | 278 | 0.0 | 3.2 | 0.00 | 0.00 | 0.00 | 35 | 996.8 |
| 20260504040015 | 15 | 277 | 0.0 | 1.6 | 0.00 | 0.00 | 0.00 | 37 | 996.6 |
| 20260504034512 | 15 | 272 | 0.0 | 1.6 | 0.00 | 0.00 | 0.00 | 38 | 996.4 |
| 20260504033042 | 15 | 258 | 0.0 | 0.0 | 0.00 | 0.00 | 0.00 | 38 | 996.4 |
| 20260504031544 | 13 | 252 | 0.0 | 0.0 | 0.00 | 0.00 | 0.00 | 43 | 996.5 |
| 20260504030038 | 12 | 242 | 0.0 | 0.0 | 0.00 | 0.00 | 0.00 | 45 | 996.5 |
| 20260504024535 | 12 | 241 | 0.0 | 0.0 | 0.00 | 0.00 | 0.00 | 45 | 996.8 |
| 20260504023035 | 12 | 229 | 0.0 | 0.0 | 0.00 | 0.00 | 0.00 | 44 | 996.9 |
| 20260504021531 | 13 | 252 | 0.0 | 0.0 | 0.00 | 0.00 | 0.00 | 41 | 997.1 |
| 20260504020057 | 16 | 241 | 0.0 | 0.0 | 0.00 | 0.00 | 0.00 | 35 | 997.3 |
| 20260504014604 | 18 | 271 | 0.0 | 0.0 | 0.00 | 0.00 | 0.00 | 30 | 997.5 |
| 20260504013055 | 19 | 291 | 0.0 | 0.0 | 0.00 | 0.00 | 0.00 | 31 | 997.8 |
| 20260504011551 | 20 | 293 | 0.0 | 0.0 | 0.00 | 0.00 | 0.00 | 31 | 997.8 |
| 20260504010049 | 21 | 283 | 0.0 | 6.4 | 0.00 | 0.00 | 0.00 | 30 | 997.9 |
| 20260504004548 | 21 | 264 | 0.0 | 8.0 | 0.00 | 0.00 | 0.00 | 29 | 998.1 |
| 20260504003051 | 21 | 272 | 0.0 | 11.3 | 0.00 | 0.00 | 0.00 | 30 | 998.3 |
| 20260504001540 | 22 | 273 | 0.0 | 4.8 | 0.00 | 0.00 | 0.00 | 28 | 998.6 |
| 20260504000051 | 22 | 281 | 0.0 | 14.5 | 0.00 | 0.00 | 0.00 | 26 | 999.1 |
| 20260503234527 | 22 | 276 | 0.0 | 6.4 | 0.00 | 0.00 | 0.00 | 28 | 999.4 |
| 20260503231523 | 21 | 290 | 0.0 | 4.8 | 0.00 | 0.00 | 0.00 | 28 | 999.9 |
| 20260503230022 | 22 | 274 | 0.0 | 3.2 | 0.00 | 0.00 | 0.00 | 28 | 1000.1 |
| 20260503224519 | 21 | 279 | 0.0 | 4.8 | 0.00 | 0.00 | 0.00 | 29 | 1000.6 |
| 20260503221516 | 21 | 254 | 0.0 | 12.9 | 0.00 | 0.00 | 0.00 | 28 | 1001.1 |
| 20260503220014 | 22 | 274 | 0.0 | 19.3 | 0.00 | 0.00 | 0.00 | 26 | 1001.5 |
| 20260503214513 | 22 | 274 | 0.0 | 6.4 | 0.00 | 0.00 | 0.00 | 25 | 1001.8 |
| 20260503211516 | 22 | 294 | 0.0 | 27.4 | 0.00 | 0.00 | 0.00 | 27 | 1002.5 |
| 20260503210011 | 22 | 270 | 0.0 | 8.0 | 0.00 | 0.00 | 0.00 | 26 | 1002.9 |
| 20260503204509 | 22 | 268 | 0.0 | 6.4 | 0.00 | 0.00 | 0.00 | 25 | 1003.0 |
| 20260503203015 | 22 | 300 | 0.0 | 3.2 | 0.00 | 0.00 | 0.00 | 27 | 1003.6 |
| 20260503201501 | 21 | 278 | 0.0 | 11.3 | 0.00 | 0.00 | 0.00 | 27 | 1003.9 |
| 20260503200100 | 21 | 262 | 0.0 | 9.7 | 0.00 | 0.00 | 0.00 | 27 | 1004.2 |
| 20260503194600 | 21 | 287 | 0.0 | 3.2 | 0.00 | 0.00 | 0.00 | 27 | 1004.7 |
| 20260503193056 | 21 | 247 | 0.0 | 4.8 | 0.00 | 0.00 | 0.00 | 29 | 1004.9 |
| 20260503191522 | 21 | 314 | 0.0 | 11.3 | 0.00 | 0.00 | 0.00 | 28 | 1005.2 |
| 20260503190018 | 21 | 261 | 0.0 | 9.7 | 0.00 | 0.00 | 0.00 | 30 | 1005.5 |
| 20260503184511 | 20 | 282 | 0.0 | 3.2 | 0.00 | 0.00 | 0.00 | 29 | 1006.0 |
| 20260503183010 | 20 | 288 | 0.0 | 6.4 | 0.00 | 0.00 | 0.00 | 31 | 1006.4 |
| 20260503181506 | 20 | 281 | 0.0 | 11.3 | 0.00 | 0.00 | 0.00 | 29 | 1006.9 |
| 20260503180003 | 20 | 236 | 0.0 | 14.5 | 0.00 | 0.00 | 0.00 | 29 | 1007.3 |
| 20260503174557 | 19 | 278 | 0.0 | 3.2 | 0.00 | 0.00 | 0.00 | 31 | 1007.8 |
| 20260503173058 | 19 | 322 | 0.0 | 8.0 | 0.00 | 0.00 | 0.00 | 29 | 1008.1 |
| 20260503171549 | 19 | 254 | 0.0 | 11.3 | 0.00 | 0.00 | 0.00 | 31 | 1008.4 |
| 20260503081518 | 1 | 159 | 0.0 | 0.0 | 0.00 | 0.00 | 0.00 | 71 | 1012.0 |
| 20260503071558 | 5 | 13 | 0.0 | 0.0 | 0.00 | 0.00 | 0.00 | 62 | 1012.1 |